Location: Newark
(34.1333°N, 7.9667°W)
Time: 00:18:24
(UTC+00:00)

Transit 2A - Pass Details

Date: 21 June 2021
Orbit: 598 x 960 km, 66.7° (Epoch: 31 July)

Event Time Altitude Azimuth Distance (km) Brightness Sun altitude
Rises 00:08:51 0° 358° (N) 3,079 10.3 -32.1°
Reaches altitude 10° 00:13:56 10° 43° (NE) 2,274 8.9 -32.2°
Maximum altitude 00:14:26 10° 49° (NE) 2,276 8.8 -32.2°
Drops below altitude 10° 00:14:57 10° 55° (NE) 2,297 8.8 -32.3°
Enters shadow 00:17:11 - 77° (ENE) 2,576 8.8 -32.3°
Sets 00:20:22 0° 98° (E) 3,350 - -32.3°
